RH
7 6 5 6 10 18 9 9 10 21 24 21 32 35 35 34 39 46 50 56 55 54 58 57 57 38 16 14 13 14 28 26 18 62 68 69 77 80 77 46 10 12 12 27 57 24 16 17 18
7 7 7 11 12 55 11 7 5 11 28 38 37 36 34 32 36 44 52 57 59 58 54 54 54 52 24 17 14 15 28 33 16 48 70 75 70 70 69 45 11 12 12 50 37 16 16 16 14
8 8 9 12 20 13 11 13 26 40 36 32 36 37 36 33 33 42 51 59 66 64 58 50 49 55 44 20 16 16 23 32 14 32 53 75 67 57 70 50 13 13 12 37 16 16 14 13 13
8 10 12 33 10 8 8 11 33 40 36 34 34 35 38 37 41 41 49 53 60 64 62 53 53 56 50 34 17 17 27 26 15 24 50 68 64 55 76 41 14 14 13 16 17 14 13 13 14
10 11 18 27 12 11 13 16 28 38 35 34 40 44 39 38 42 44 50 53 58 62 65 61 56 58 53 39 21 20 23 18 20 14 42 51 55 56 74 36 15 15 16 16 15 14 13 14 16
12 12 34 43 19 11 10 15 36 40 36 34 43 47 46 37 40 44 64 62 62 60 60 65 60 60 56 41 25 30 40 25 22 21 20 40 52 61 75 32 16 16 17 15 15 15 15 18 17
11 22 21 23 29 24 22 41 43 37 35 32 36 47 49 44 42 46 55 65 66 67 49 56 64 59 61 48 30 47 39 19 23 38 34 23 70 61 87 20 17 18 19 15 15 17 20 17 18
13 42 64 61 57 42 29 48 46 42 38 31 33 35 52 50 46 47 49 66 62 70 65 49 60 64 65 59 41 39 28 18 18 52 55 42 71 76 82 17 18 21 19 15 16 22 21 20 20
23 58 71 60 47 44 36 44 41 45 44 36 29 38 47 50 47 54 65 67 62 72 72 57 54 55 67 63 55 34 30 17 19 24 51 66 74 84 72 18 19 22 18 17 24 24 25 23 22
38 52 74 56 58 58 67 64 55 45 42 41 27 35 41 46 46 55 70 74 49 90 74 75 53 57 72 70 68 48 22 18 19 19 53 78 76 82 59 18 21 20 18 24 26 27 25 24 22
60 54 50 49 48 70 71 65 62 59 49 39 44 31 32 46 45 45 54 77 65 50 90 78 71 64 71 79 79 63 28 18 20 26 68 83 72 94 31 19 21 17 19 26 26 24 23 21 20
77 81 77 72 66 65 76 78 74 69 53 44 39 46 20 40 46 45 50 59 74 59 53 93 75 76 76 74 98 78 48 25 21 67 91 85 70 92 19 20 21 17 23 28 27 25 24 23 22
91 92 92 91 90 83 79 62 61 58 57 55 41 34 41 21 46 45 50 54 62 63 62 64 88 80 80 76 95 97 76 32 37 78 92 86 72 82 15 21 22 18 28 28 28 31 35 34 32
65 70 74 77 76 65 75 59 62 49 47 40 36 28 26 40 28 45 54 55 57 68 63 65 88 80 99 91 94 85 97 38 62 84 92 93 66 47 17 23 20 23 29 31 36 41 39 38 41
72 64 54 39 30 41 46 50 59 51 43 39 33 24 31 26 32 40 54 58 56 61 63 57 82 92 89 100 100 96 94 38 77 83 86 99 60 21 20 26 19 27 30 34 40 42 43 46 47
60 60 53 30 52 56 71 75 66 54 50 49 45 32 20 22 27 30 37 60 64 59 64 69 81 94 95 95 94 96 97 50 78 86 97 90 51 15 22 26 20 29 31 36 42 46 48 50 50
59 66 60 59 52 58 61 62 51 56 52 52 55 53 38 22 24 24 28 48 65 63 54 64 75 91 99 95 86 92 99 68 86 93 99 86 42 14 22 27 22 29 34 40 46 50 51 50 50
68 77 77 73 52 62 68 53 42 44 47 54 60 55 53 52 34 28 23 28 53 65 56 54 62 74 98 100 93 89 100 88 84 85 98 70 28 16 22 27 26 27 36 45 51 51 51 51 50
88 91 88 33 57 64 56 72 57 47 48 43 48 58 60 52 48 53 30 26 60 76 59 63 59 83 96 99 98 95 98 97 78 88 99 60 27 18 23 26 22 26 42 50 52 52 51 51 50
93 84 64 53 58 76 73 64 61 41 32 30 31 47 62 62 67 75 56 72 87 69 52 55 58 81 93 98 100 99 88 93 73 88 86 56 25 19 24 26 20 31 48 52 53 52 52 51 50
85 83 66 80 68 68 81 63 46 34 50 54 43 61 73 76 89 72 62 79 70 61 40 42 48 62 73 97 100 98 99 90 70 73 79 47 26 20 26 24 22 43 52 53 53 52 52 52 50
81 70 85 90 99 99 90 85 63 43 51 52 39 52 74 82 88 73 69 69 63 75 57 36 32 46 90 100 100 97 90 89 64 62 57 42 21 21 29 24 29 49 54 54 53 52 52 52 51
90 98 100 100 97 98 91 99 70 67 70 67 56 61 71 76 67 78 70 68 83 89 54 22 30 79 74 100 100 97 100 82 52 42 33 26 20 22 31 24 34 50 54 54 53 53 52 52 52
99 95 98 100 98 98 76 87 75 87 92 72 76 78 89 90 83 85 70 76 95 86 69 62 82 86 78 97 99 99 100 76 45 29 25 22 21 25 34 26 35 48 54 54 54 53 52 52 52
98 100 92 95 98 92 91 98 79 96 100 87 77 86 85 78 85 77 97 99 93 75 82 75 100 85 77 89 100 100 98 65 40 27 22 21 22 30 36 27 35 45 52 53 53 53 52 51 59
92 98 97 96 96 97 97 97 97 98 98 98 93 83 78 84 95 94 99 94 85 88 83 80 89 81 73 84 100 100 99 92 63 37 28 25 27 38 37 28 33 42 48 50 51 50 51 58 74
93 98 99 98 96 97 84 96 97 99 98 99 99 100 88 84 94 96 89 83 97 72 90 95 79 72 85 74 99 98 99 98 90 69 44 36 39 41 45 38 33 37 42 45 47 48 64 83 77
98 100 97 97 96 96 90 96 98 97 98 99 99 92 87 96 99 86 81 78 81 93 100 90 75 85 75 81 79 89 98 99 99 94 81 55 39 42 45 42 42 38 40 41 47 61 81 84 91
97 98 99 100 97 100 96 96 98 98 98 98 98 100 97 85 75 72 74 78 90 100 96 84 68 82 80 95 92 99 100 99 100 98 96 98 83 58 59 45 45 44 45 47 50 68 84 87 91
98 96 91 90 91 96 97 98 98 98 98 98 99 99 99 86 63 69 97 98 99 97 87 78 76 85 88 85 99 100 97 100 100 100 100 98 94 78 55 52 55 57 56 57 63 90 95 76 91
Wind_Speed
14 15 16 14 10 10 24 22 24 9 14 15 16 21 17 21 25 19 23 19 16 20 18 14 11 12 13 13 14 14 13 13 13 14 13 13 12 12 8 7 7 7 6 9 11 9 9 10 10
15 16 16 15 13 15 23 25 21 10 11 13 19 19 27 26 25 23 21 19 19 16 22 25 20 14 15 15 16 16 15 15 15 15 14 13 12 10 9 6 7 5 5 10 10 9 8 9 10
16 18 20 13 19 29 21 17 9 9 11 19 20 15 20 23 29 22 22 17 14 12 19 14 22 20 17 18 18 18 17 16 16 16 15 15 12 10 9 7 7 5 6 10 9 8 9 9 10
19 20 19 22 23 22 31 19 13 19 19 19 20 17 24 22 23 28 22 24 19 17 16 25 19 24 21 20 20 19 19 18 17 18 17 17 14 11 10 9 9 7 7 9 9 9 10 11 11
21 22 25 25 29 31 20 14 20 18 19 22 19 16 24 26 24 26 24 26 22 18 19 27 25 25 24 22 22 22 21 20 19 20 20 19 15 14 12 11 10 10 9 9 10 11 11 12 12
23 24 22 29 33 29 28 24 21 24 23 24 18 20 18 25 25 27 19 25 27 23 23 25 19 18 25 25 24 24 22 22 21 20 22 20 18 17 14 13 13 12 11 10 12 13 13 12 12
25 26 31 31 29 26 20 14 20 26 31 30 23 20 23 28 33 23 21 24 27 26 34 32 30 21 20 27 27 26 25 23 22 21 22 23 20 19 16 15 15 14 13 12 14 15 13 12 12
24 27 30 30 29 31 25 26 27 26 30 37 29 27 24 31 34 28 29 29 30 27 29 39 31 28 24 26 30 28 27 26 25 23 23 25 22 21 18 18 17 16 15 15 16 15 13 13 12
21 29 27 31 30 34 25 29 33 32 34 36 36 30 29 32 29 28 23 32 32 29 30 34 38 31 26 27 33 32 30 29 28 27 26 27 25 23 20 20 19 17 17 18 17 16 14 13 13
25 30 28 28 23 22 21 22 25 36 41 41 41 37 39 39 34 28 23 27 43 29 31 30 37 33 24 27 33 35 33 33 32 31 31 31 29 24 22 23 21 19 20 20 18 17 16 15 14
22 31 25 25 24 21 24 29 31 35 38 40 42 47 46 48 44 40 36 29 36 46 33 34 35 36 32 31 32 39 36 36 35 34 34 34 32 28 27 26 24 22 23 21 19 18 16 15 14
23 21 21 21 19 23 32 33 36 37 43 40 40 41 46 56 53 47 43 41 37 44 51 36 39 39 36 37 36 42 39 38 36 36 35 36 32 30 30 28 24 24 24 22 20 19 17 15 14
20 20 22 23 25 28 33 37 42 46 45 43 42 43 47 53 61 52 46 46 46 48 50 47 41 39 41 37 39 44 40 38 37 38 38 36 33 31 31 29 26 27 25 24 22 20 18 15 13
22 24 27 29 32 34 37 41 39 43 41 42 44 44 44 54 61 60 48 46 52 53 52 50 47 46 46 38 41 57 41 40 40 41 39 37 34 32 32 30 29 29 28 26 24 20 18 16 14
22 25 26 26 26 31 28 44 46 43 40 39 37 41 45 48 55 65 55 49 51 58 60 55 51 52 49 45 41 48 47 45 43 43 43 39 35 34 33 32 31 31 30 27 24 21 19 16 13
20 24 29 27 21 19 15 47 37 32 33 34 32 35 39 45 50 59 60 56 52 59 62 61 47 52 58 53 51 41 47 49 46 46 41 43 37 36 36 34 34 34 31 28 25 22 19 15 13
15 20 25 28 19 22 23 44 39 34 31 37 39 36 35 38 44 53 61 61 56 56 68 66 56 55 46 60 45 51 45 49 48 47 45 43 39 39 38 35 37 35 32 28 25 22 18 15 12
11 20 27 33 29 29 30 40 43 40 41 37 37 38 38 40 40 44 50 54 55 56 63 72 61 58 50 47 48 58 40 45 50 49 49 43 40 41 40 39 39 36 32 30 25 22 19 15 13
20 26 34 30 32 37 43 38 40 37 35 42 38 41 42 44 40 29 38 50 43 44 58 61 54 52 44 40 44 44 46 59 56 50 48 43 42 43 42 41 40 36 33 29 25 23 20 17 15
19 26 36 39 28 28 35 42 37 33 31 34 40 41 32 33 30 26 32 41 41 45 56 59 52 52 56 45 40 49 55 54 51 51 46 43 44 45 41 40 39 35 35 31 27 24 20 18 16
25 30 31 33 29 27 30 39 27 14 22 26 31 31 25 30 25 23 33 44 42 35 51 56 58 48 65 48 49 57 51 52 49 48 50 46 47 44 42 39 37 37 36 32 27 25 22 19 17
28 18 25 28 23 11 17 13 38 27 23 23 21 27 25 32 30 27 29 35 31 33 35 47 50 50 40 44 62 57 56 50 51 49 42 48 47 44 42 39 40 40 37 33 30 27 23 20 17
25 25 25 26 25 29 21 13 13 23 21 13 19 21 21 22 29 32 32 30 35 29 33 39 40 41 46 32 52 57 52 50 43 46 45 48 46 44 42 41 42 42 39 36 32 28 24 22 20
21 23 22 16 19 7 16 15 11 17 19 17 19 22 23 24 23 32 34 31 28 24 29 28 29 31 37 36 52 52 47 45 45 45 45 47 46 45 44 43 45 44 40 37 32 29 26 25 22
12 13 5 3 1 6 16 9 20 24 13 19 21 22 28 27 26 26 29 32 26 27 26 32 25 26 34 66 37 55 41 43 43 43 46 47 48 48 46 46 47 44 41 37 34 31 29 27 23
10 10 4 3 2 4 4 8 7 26 10 5 13 20 20 17 21 25 26 24 28 29 23 23 21 14 22 44 35 49 61 41 37 39 44 45 45 44 42 43 43 42 40 39 36 33 30 28 23
10 7 12 5 9 1 11 11 8 25 14 6 3 12 12 19 25 25 29 29 28 26 23 23 15 12 16 32 35 37 42 45 43 38 39 41 42 42 42 40 41 41 41 39 36 34 32 28 24
13 15 5 6 4 2 3 8 21 33 25 24 5 4 13 14 20 28 28 30 32 25 24 23 18 12 12 14 25 35 33 43 43 44 41 37 37 39 37 39 39 41 40 40 37 36 34 33 29
16 14 6 6 4 2 3 8 31 29 22 23 19 6 9 14 25 25 28 35 34 29 30 22 14 4 6 23 24 21 22 43 46 41 45 44 37 39 40 39 40 40 41 40 40 41 39 34 37
17 17 15 6 10 9 3 10 31 31 26 25 33 24 18 10 18 30 38 36 33 30 24 15 9 8 8 11 18 20 33 28 36 31 33 36 43 37 36 38 39 39 40 41 41 41 41 39 45
Wind_Direction
227 232 230 227 215 215 233 237 237 241 225 224 233 231 253 257 256 269 268 277 269 246 253 263 253 245 229 223 219 213 201 196 189 185 176 169 176 174 172 170 158 144 131 124 127 124 123 123 125
230 226 233 223 222 211 241 247 245 267 216 201 214 237 252 247 256 256 262 269 269 249 254 253 260 250 235 222 219 212 203 198 192 193 192 179 183 192 178 176 165 149 135 127 132 131 130 130 132
231 228 225 215 225 224 241 241 194 242 234 228 232 241 248 236 244 254 259 267 265 239 239 252 243 240 240 229 217 214 206 201 198 196 200 189 187 199 184 182 172 157 150 134 129 133 133 136 132
233 233 228 222 222 241 241 246 214 233 222 228 238 247 246 228 235 244 262 257 256 244 261 233 262 235 233 232 223 216 209 205 201 197 202 198 192 197 190 185 180 167 157 140 138 140 140 137 131
243 236 230 233 239 245 242 225 204 232 229 208 213 212 243 231 231 237 258 261 264 247 247 246 249 231 232 229 225 217 211 208 205 202 202 207 203 196 195 194 184 170 164 153 148 145 143 138 131
235 235 235 237 245 248 245 234 225 245 241 211 219 215 211 227 235 232 259 259 250 251 237 236 238 237 227 228 221 217 210 209 208 206 205 206 207 200 198 197 185 174 168 164 155 151 148 142 134
238 235 240 244 251 249 240 218 240 248 243 220 228 229 210 216 235 233 240 250 250 245 242 247 248 242 250 226 223 214 212 211 208 206 205 203 204 204 197 196 186 176 172 169 159 153 150 144 136
239 236 245 243 241 247 231 218 235 239 237 228 231 239 195 209 226 234 240 251 253 240 231 238 246 248 245 244 222 217 215 212 210 202 202 197 198 203 198 195 188 180 174 170 162 156 151 146 141
226 228 245 250 248 249 253 244 224 237 243 225 222 231 196 212 227 231 231 239 251 237 231 229 240 245 245 255 234 218 215 212 210 206 202 198 197 201 201 195 191 183 176 170 164 159 155 151 145
222 233 239 249 254 256 243 244 248 242 235 234 227 225 206 205 230 238 225 234 242 240 227 229 234 242 239 242 239 225 216 211 210 207 203 199 201 202 203 198 192 186 178 172 170 164 160 156 150
231 242 253 256 257 239 245 245 246 247 244 235 232 232 215 209 225 239 240 221 229 240 238 224 223 230 231 235 236 235 218 214 210 207 204 202 206 199 201 198 194 188 180 177 172 167 162 159 154
247 257 269 278 274 260 247 251 248 243 249 246 235 229 223 215 221 231 242 233 218 226 235 229 223 220 226 228 233 233 224 215 208 202 204 208 204 201 201 197 195 189 182 177 173 167 163 159 155
243 257 263 265 263 262 267 262 261 256 253 254 253 240 232 223 221 230 237 239 231 223 228 232 226 222 226 233 230 226 227 217 208 202 208 209 206 204 200 197 194 189 184 178 174 169 165 161 153
267 261 256 251 254 259 259 265 264 262 265 263 257 252 240 230 228 229 233 237 234 224 226 225 230 217 220 234 234 234 222 219 208 205 211 206 208 205 200 197 195 189 183 180 175 173 168 162 154
256 266 266 265 274 272 279 265 261 268 270 270 268 259 248 238 229 232 232 235 235 232 226 226 227 225 216 209 220 227 210 216 210 208 210 207 209 204 200 197 196 190 186 182 177 175 171 164 158
271 270 280 292 290 281 278 276 284 285 278 274 273 258 253 242 233 229 236 235 233 234 224 229 225 231 226 227 230 213 211 209 209 209 205 213 211 203 199 199 196 192 189 183 178 177 175 171 171
275 282 290 300 292 290 270 273 270 270 264 268 271 265 255 252 239 230 232 237 237 234 231 230 225 227 230 228 231 219 216 206 209 211 205 214 210 205 199 200 199 194 189 185 181 182 182 183 183
290 287 291 286 299 298 286 279 279 267 266 265 261 262 258 253 241 236 230 235 239 236 234 236 232 233 238 229 230 228 200 208 210 211 214 213 207 206 200 198 200 197 188 187 188 190 190 192 198
290 290 289 306 302 293 293 288 283 278 270 257 254 254 258 261 249 245 238 229 236 244 236 233 236 231 232 213 227 216 229 202 208 209 209 216 206 206 203 202 201 196 190 192 194 199 198 200 209
277 283 285 297 308 302 299 294 287 284 278 264 262 253 259 253 240 242 237 215 227 237 238 229 235 226 221 226 209 201 197 204 207 208 211 214 208 206 203 205 203 193 196 197 200 204 208 210 217
277 280 294 295 317 303 304 297 310 301 289 279 252 249 246 258 243 238 225 215 230 235 232 229 233 239 228 239 206 201 201 203 209 212 214 213 209 206 203 205 201 197 201 204 207 211 216 219 228
285 296 301 300 301 293 307 296 297 309 306 282 247 239 244 248 229 229 220 222 229 231 219 221 232 238 238 224 197 203 208 202 213 214 218 208 209 206 205 204 201 203 207 209 213 217 223 231 243
283 293 293 293 287 288 296 251 290 308 292 257 243 259 244 227 227 219 226 223 233 237 204 210 222 231 229 217 199 204 203 208 214 217 216 207 206 205 204 204 204 206 210 214 218 223 229 237 246
285 295 306 297 269 254 271 234 287 320 289 244 240 242 247 245 242 225 223 223 228 209 191 190 208 220 224 217 212 208 202 205 209 209 210 207 204 204 204 205 207 210 214 219 222 228 234 239 246
339 306 305 357 184 237 298 236 257 321 303 264 235 239 240 243 223 212 211 218 213 191 178 183 201 209 225 228 210 197 200 207 209 207 206 205 203 204 205 206 209 212 216 221 226 231 236 242 245
346 336 264 284 252 307 309 300 299 357 314 275 250 239 232 228 218 210 207 186 188 179 179 195 180 211 246 244 185 191 204 204 210 210 210 209 206 208 209 212 214 216 219 223 227 232 237 238 231
344 316 323 252 273 317 326 333 1 32 41 60 187 241 249 232 230 215 184 185 177 168 172 174 159 202 196 231 202 200 202 205 199 209 207 210 210 210 213 216 218 220 223 227 230 233 231 223 219
7 358 324 313 336 347 335 12 353 13 35 52 80 277 262 237 217 192 192 183 158 164 153 155 178 187 239 251 271 255 209 203 197 204 204 204 210 213 213 218 220 223 226 228 229 229 224 226 231
13 16 3 333 6 311 332 13 12 10 24 40 59 160 222 223 196 192 181 155 159 158 144 149 173 199 239 238 269 206 183 200 203 206 213 205 206 214 215 216 221 224 228 228 229 228 227 232 244
42 47 42 39 350 354 1 36 20 25 34 47 52 79 117 169 170 165 147 167 142 138 136 132 146 113 255 287 210 176 191 170 180 192 199 201 205 208 211 217 221 225 229 229 227 223 228 247 244